Tracking 19817 objects as of 17-Aug-2019
HD Live streaming from Space Station
objects crossing your sky now

COSMOS 2251 DEB

Track COSMOS 2251 DEB now!
10-day predictions


NORAD ID: 34469
Int'l Code: 1993-036TN
Perigee: 677.1 km
Apogee: 697.5 km
Inclination: 74.0 °
Period: 98.4 minutes
Semi major axis: 7058 km
RCS: 0.033 m2 (small)
Launch date: June 16, 1993
Source: Commonwealth of Independent States (former USSR) (CIS)
Launch site: PLESETSK MISSILE AND SPACE COMPLEX (PKMTR)

Note: This is SATELLITE DEBRIS
aabbcc
Your satellite tracking list
Your tracking list is empty




NASA's NSSDC Master Catalog

Two Line Element Set (TLE):
1 34469U 93036TN  19228.80148060 +.00000856 +00000-0 +16883-3 0  9994
2 34469 074.0186 003.1329 0014419 336.8887 023.1630 14.64043783554889
Source of the keplerian elements: AFSPC